Location: Rometta
(44.2000°N, 10.0500°E)
Time: 21:26:05
(UTC+00:00)

Cosmos 1818 - Pass Details

Date: 20 January 2021
Orbit: 773 x 800 km, 65.0° (Epoch: 04 March)

Event Time Altitude Azimuth Distance (km) Brightness Sun altitude
Rises 18:24:54 0° 225° (SW) 3,264 7.5 -23.3°
Reaches altitude 10° 18:27:20 10° 229° (SW) 2,344 6.7 -23.7°
Maximum altitude 18:32:39 58° 309° (NW) 921 4.0 -24.6°
Enters shadow 18:34:50 34° 12° (NNE) 1,285 4.5 -25.0°
